Flight Track Log - Related Links

Times and Time Zones

All times are in EDT time to prevent confusion due to time zone crossing. See the ASQ5941 flight status page for this flight to view local times or setup timezone preferences in your user account.

Time Position Orientation Groundspeed Altitude Reporting Facility
EDT Latitude Longitude Course Direction KTS MPH feet Rate Location/Type
Mon 02:56:05 PM 41.9167 -87.9167 77° East 156 180 3,000  Level Chicago TRACON
Mon 02:57:11 PM 41.8969 -87.8561 114° Southeast 245 282 4,000 797 Climbing Chicago Center
Mon 02:58:13 PM 41.8897 -87.7633 96° East 248 285 4,700 484 Climbing Chicago Center
Mon 02:59:00 PM 42.0540 -87.3409 78° East  Level FlightAware Approximate
Mon 02:59:15 PM 41.8828 -87.6664 95° East 258 297 5,000  Level Chicago Center
Mon 03:00:00 PM 42.0758 -87.1990 78° East  Level FlightAware Approximate
Mon 03:00:18 PM 41.9144 -87.5561 69° East 274 315 6,700  Level Chicago Center
Mon 03:01:00 PM 42.0985 -87.0588 77° East  Level FlightAware Approximate
Mon 03:01:20 PM 41.9508 -87.4664 61° Northeast 276 318 8,700  Level Chicago Center
Mon 03:02:22 PM 41.9892 -87.3697 62° Northeast 294 338 10,400 1,306 Climbing Chicago Center
Mon 03:03:24 PM 42.0311 -87.2661 61° Northeast 317 365 11,400 823 Climbing Chicago Center
Mon 03:04:26 PM 42.0783 -87.1478 62° Northeast 359 413 12,100 968 Climbing Chicago Center
Mon 03:05:28 PM 42.1150 -87.0222 68° East 366 421 13,400 1,210 Climbing Chicago Center
Mon 03:06:30 PM 42.1219 -86.8575 87° East 371 427 14,600 1,113 Climbing Chicago Center
Mon 03:07:32 PM 42.1264 -86.7164 88° East 376 433 15,700 871 Climbing Chicago Center
Mon 03:08:34 PM 42.1294 -86.5711 88° East 384 442 16,400 768 Climbing Chicago Center
Mon 03:09:37 PM 42.1347 -86.4256 87° East 389 448 17,300 624 Climbing Chicago Center
Mon 03:10:39 PM 42.1394 -86.2786 87° East 391 450 17,700 677 Climbing Chicago Center
Mon 03:11:41 PM 42.1439 -86.1322 88° East 392 451 18,700 1,065 Climbing Chicago Center
Mon 03:12:43 PM 42.1433 -85.9681 90° East 391 450 19,900 1,113 Climbing Chicago Center
Mon 03:13:45 PM 42.1417 -85.8231 91° East 390 449 21,000 1,016 Climbing Chicago Center
Mon 03:14:47 PM 42.1408 -85.6742 90° East 398 458 22,000 1,065 Climbing Chicago Center
Mon 03:15:49 PM 42.1378 -85.4978 91° East 397 457 23,200 1,113 Climbing Chicago Center
Mon 03:16:51 PM 42.1375 -85.3503 90° East 397 457 24,300 1,016 Climbing Chicago Center
Mon 03:17:53 PM 42.1356 -85.2033 91° East 397 457 25,300 968 Climbing Chicago Center
Mon 03:18:55 PM 42.1344 -85.0564 91° East 395 455 26,300 1,016 Climbing Chicago Center
Mon 03:19:57 PM 42.1317 -84.9111 91° East 390 449 27,400 1,008 Climbing Chicago Center
Mon 03:21:00 PM 42.1294 -84.7672 91° East 389 448 28,400 1,104 Climbing Chicago Center
Mon 03:22:02 PM 42.1258 -84.5939 92° East 387 445 29,700 1,113 Climbing Chicago Center
Mon 03:23:04 PM 42.1256 -84.4489 90° East 388 447 30,700 1,086 Climbing Chicago Center
Mon 03:23:47 PM 42.1381 -84.3414 81° East 384 442 31,600 1,165 Climbing Cleveland Center
Mon 03:24:47 PM 42.1483 -84.2186 84° East 379 436 32,700 700 Climbing Cleveland Center
Mon 03:25:47 PM 42.1653 -84.0739 81° East 384 442 33,000 150 Climbing Cleveland Center
Mon 03:26:47 PM 42.1825 -83.9206 81° East 396 456 33,000  Level Cleveland Center
Mon 03:27:47 PM 42.1994 -83.7617 82° East 413 475 33,000 450 Level Cleveland Center
Mon 03:28:47 PM 42.2142 -83.6000 83° East 428 493 33,900 1,000 Climbing Cleveland Center
Mon 03:29:47 PM 42.2272 -83.4211 84° East 439 505 35,000 550 Climbing Cleveland Center
Mon 03:30:47 PM 42.2289 -83.2556 89° East 439 505 35,000  Level Cleveland Center
Mon 03:31:47 PM 42.2308 -83.0875 89° East 445 512 35,000  Level Cleveland Center
Mon 03:32:47 PM 42.2319 -82.9247 89° East 440 506 35,000  Level Cleveland Center
Mon 03:33:47 PM 42.2333 -82.7594 89° East 440 506 35,000  Level Cleveland Center
Mon 03:34:47 PM 42.2319 -82.5994 91° East 440 506 35,000  Level Cleveland Center
Mon 03:35:47 PM 42.2328 -82.4339 90° East 440 506 35,000  Level Cleveland Center
Mon 03:36:47 PM 42.2331 -82.2714 90° East 440 506 35,000  Level Cleveland Center
Mon 03:37:47 PM 42.2331 -82.1256 90° East 440 506 35,000  Level Cleveland Center
Mon 03:38:47 PM 42.2331 -81.9600 90° East 440 506 35,000  Level Cleveland Center
Mon 03:39:47 PM 42.2328 -81.7975 90° East 440 506 35,000  Level Cleveland Center
Mon 03:40:47 PM 42.2322 -81.6347 90° East 435 501 35,000  Level Cleveland Center
Mon 03:41:47 PM 42.2297 -81.4581 91° East 435 501 35,000  Level Cleveland Center
Mon 03:42:47 PM 42.2286 -81.2953 90° East 435 501 35,000  Level Cleveland Center
Mon 03:43:47 PM 42.2275 -81.1300 90° East 435 501 35,000  Level Cleveland Center
Mon 03:44:47 PM 42.2261 -80.9672 91° East 437 503 35,000  Level Cleveland Center
Mon 03:45:47 PM 42.2244 -80.8047 91° East 437 503 35,000  Level Cleveland Center
Mon 03:46:47 PM 42.2164 -80.6392 94° East 437 503 35,000  Level Cleveland Center
Mon 03:47:47 PM 42.1933 -80.4767 101° East 444 511 35,000  Level Cleveland Center
Mon 03:48:47 PM 42.1764 -80.3169 98° East 438 504 35,000  Level Cleveland Center
Mon 03:49:47 PM 42.1572 -80.1769 100° East 433 498 35,000  Level Cleveland Center
Mon 03:50:47 PM 42.1378 -80.0175 99° East 425 489 35,000  Level Cleveland Center
Mon 03:51:47 PM 42.1139 -79.8414 100° East 425 489 35,000  Level Cleveland Center
Mon 03:52:47 PM 42.0919 -79.6822 100° East 430 495 35,000  Level Cleveland Center
Mon 03:53:47 PM 42.0697 -79.5231 101° East 430 495 35,000  Level Cleveland Center
Mon 03:54:47 PM 42.0472 -79.3642 101° East 430 495 35,000  Level Cleveland Center
Mon 03:55:47 PM 42.0267 -79.2050 100° East 430 495 35,000 -700 Level Cleveland Center
Mon 03:56:47 PM 42.0039 -79.0464 101° East 430 495 33,600 -1,450 Descending Cleveland Center
Mon 03:57:47 PM 41.9808 -78.8933 101° East 430 495 32,100 -5,300 Descending Cleveland Center
Mon 03:58:47 PM 41.9619 -78.7486 100° East 430 495 23,000 -1,450 Descending Cleveland Center
Mon 03:59:47 PM 41.9386 -78.5900 101° East 430 495 29,200 2,350 Climbing Cleveland Center
Mon 04:00:47 PM 41.9150 -78.4344 101° East 430 495 27,700 -1,450 Descending Cleveland Center
Mon 04:01:47 PM 41.8931 -78.2736 100° East 430 495 26,300 -1,450 Descending Cleveland Center
Mon 04:02:47 PM 41.8667 -78.1100 102° East 435 501 24,800 -1,404 Descending Cleveland Center
Mon 04:04:08 PM 41.8297 -77.8750 102° East 450 518 23,000 -761 Descending New York Center
Mon 04:05:09 PM 41.8061 -77.7083 101° East 455 524 23,000  Level New York Center
Mon 04:06:07 PM 41.7803 -77.5442 102° East 455 524 23,000  Level New York Center
Mon 04:07:07 PM 41.7522 -77.3744 102° East 455 524 23,000 -7,059 Level New York Center
Mon 04:08:06 PM 41.7281 -77.2108 101° East 455 524 9,000 -1,361 Descending New York Center
Mon 04:09:06 PM 41.7011 -77.0497 103° East 449 517 20,300 4,413 Climbing New York Center
Mon 04:10:07 PM 41.6778 -76.8975 102° East 436 502 17,900 -2,164 Descending New York Center
Mon 04:11:08 PM 41.6542 -76.7511 102° East 417 480 15,900 -2,033 Descending New York Center
Mon 04:12:08 PM 41.6314 -76.6186 103° East 412 474 13,800 -1,983 Descending New York Center
Mon 04:13:09 PM 41.6058 -76.4636 102° East 388 447 11,900 -1,475 Descending New York Center
Mon 04:14:06 PM 41.5861 -76.3483 103° East 346 398 10,900 -1,333 Descending New York Center
Mon 04:15:06 PM 41.5683 -76.2386 102° East 312 359 9,300 -1,686 Descending New York Center
Mon 04:16:07 PM 41.5519 -76.1458 103° East 289 333 7,500 -1,950 Descending New York Center
Mon 04:17:06 PM 41.4953 -76.0583 131° Southeast 277 319 5,400 -1,714 Descending New York Center
Mon 04:18:06 PM 41.4381 -75.9872 137° Southeast 282 325 4,100 -694 Descending New York Center
Mon 04:19:07 PM 41.3844 -75.9250 139° Southeast 282 325 4,000 -98 Descending New York Center

Login

Don't have an account? Register now (free) for customized features, flight alerts, and more!